This is the latest recevied weather packets stored in our database for station/object W8CEN. If no packets are shown the sender has not sent any weather packets the latest 10 day(s).
| Time | Temp. | Humidity | Pressure | Rain* | Wind** | Luminosity | Snow |
|---|---|---|---|---|---|---|---|
| 1777812539 | 8.33° C | 58% | 994.4 hPa | 0 mm | - | 241 W/m² | - |
| 1777812237 | 8.33° C | 59% | 994.5 hPa | 0 mm | - | 228 W/m² | - |
| 1777811935 | 7.78° C | 56% | 994.4 hPa | 0 mm | - | 252 W/m² | - |
| 1777811634 | 7.78° C | 58% | 994.5 hPa | 0 mm | - | 232 W/m² | - |
| 1777811333 | 7.22° C | 58% | 994.4 hPa | 0 mm | - | 213 W/m² | - |
| 1777811031 | 6.67° C | 61% | 994.5 hPa | 0 mm | - | 195 W/m² | - |
| 1777810728 | 6.67° C | 58% | 994.7 hPa | 0 mm | - | 182 W/m² | - |
| 1777810424 | 6.67° C | 60% | 994.5 hPa | 0 mm | - | 171 W/m² | - |
| 1777810120 | 6.11° C | 63% | 994.7 hPa | 0 mm | - | 157 W/m² | - |
| 1777809818 | 6.11° C | 66% | 994.5 hPa | 0 mm | - | 142 W/m² | - |
| 1777809516 | 5.56° C | 68% | 994.3 hPa | 0 mm | - | 127 W/m² | - |
| 1777809213 | 5° C | 70% | 994.4 hPa | 0 mm | - | 113 W/m² | - |
| 1777808911 | 4.44° C | 71% | 994.4 hPa | 0 mm | - | 102 W/m² | - |
| 1777808607 | 3.89° C | 73% | 994.4 hPa | 0 mm | - | 89 W/m² | - |
| 1777808304 | 3.33° C | 74% | 994.4 hPa | 0 mm | - | 78 W/m² | - |
| 1777808003 | 2.78° C | 75% | 994.3 hPa | 0 mm | - | 44 W/m² | - |
| 1777807700 | 2.78° C | 75% | 994.5 hPa | 0 mm | - | 42 W/m² | - |
| 1777807398 | 2.78° C | 76% | 994.4 hPa | 0 mm | - | 39 W/m² | - |
| 1777807098 | 2.22° C | 76% | 994.4 hPa | 0 mm | - | 35 W/m² | - |
| 1777806796 | 2.22° C | 77% | 994.3 hPa | 0 mm | - | 32 W/m² | - |
| 1777806491 | 2.22° C | 77% | 994.5 hPa | 0 mm | - | 29 W/m² | - |
| 1777806188 | 2.22° C | 77% | 994.2 hPa | 0 mm | - | 25 W/m² | - |
| 1777805885 | 1.67° C | 77% | 994.3 hPa | 0 mm | - | 22 W/m² | - |
| 1777805583 | 1.67° C | 77% | 994.4 hPa | 0 mm | - | 18 W/m² | - |
| 1777805280 | 1.67° C | 77% | 994.1 hPa | 0 mm | - | 15 W/m² | - |
* Rain latest hour (hover to see other rain measurements)
** Current wind speed in m/s (hover to see current wind gust speed)